User: anonymous   Login
Location: Cañada de la Miga
(34.7595°N, 106.2317°W)
Time: 21:01:36
(UTC+00:00)
Language:

Explorer 11/Cluster Stage 4 - Orbit

View from above orbital plane
View from above orbital plane
View from above satellite
View from above satellite

Ground track
Ground track

The orbit data is extracted from the following two-line orbital elements,

1 00107U 61013A   21340.46435437  .00000993  00000-0  11371-3 0  9992
2 00107  28.7914  27.6671 0544716 332.6210  24.6621 14.09465306 42043
Epoch (UTC): 06 December 2021 11:08:40
Eccentricity: 0.0544716
inclination: 28.7914°
perigee height: 467 km
apogee height: 1255 km
right ascension of ascending node: 27.6671°
argument of perigee: 332.6210°
revolutions per day: 14.09465306
mean anomaly at epoch: 24.6621°
orbit number at epoch: 4204

The dashed part of the orbit path shows where the satellite is in the earth's shadow,  

DLR